Tracking 27122 objects as of 24-Mar-2023
HD Live streaming from Space Station
objects crossing your sky now

CZ-4C DEB

Track CZ-4C DEB now!
10-day predictions


NORAD ID: 44617
Int'l Code: 2018-034J
Perigee: 1,002.0 km
Apogee: 1,224.0 km
Inclination: 63.4 °
Period: 107.4 minutes
Semi major axis: 7484 km
RCS: Unknown
Launch date: April 10, 2018
Source: People's Republic of China (PRC)
Launch site: Taiyaun Space Center, China (TSC)

Note: This is SATELLITE DEBRIS
Your satellite tracking list
Your tracking list is empty




NASA's NSSDC Master Catalog

Two Line Element Set (TLE):
1 44617U 18034J   23082.81901116 -.00000051  00000-0  64363-4 0  9993
2 44617  63.4020 283.7245 0148293   5.3659 354.8912 13.40913450235827
Source of the keplerian elements: AFSPC